FW9116 Weather Reports


Display with metric or nautical units.
time (UTC)temp
F
wind
direction
speed
MPH
gust
MPH
rain 1hr
in
rain 24hr
in
rain mn
in
humidity
%
barometer
mb
20260905191054 70 28 1.0 5.0 0.00 0.13 0.00 60 1016.4
20260905190559 71 24 0.0 7.0 0.00 0.13 0.00 60 1016.4
20260905185600 69 17 2.0 6.0 0.00 0.13 0.00 64 1016.5
20260905185058 68 308 0.0 6.0 0.00 0.13 0.00 67 1016.4
20260905184606 68 329 2.0 6.0 0.00 0.13 0.00 67 1016.5
20260905184100 68 18 1.0 6.0 0.00 0.13 0.00 67 1016.5
20260905183601 67 5 0.0 5.0 0.00 0.13 0.00 68 1016.7
20260905183104 66 0 2.0 5.0 0.00 0.13 0.00 67 1016.7
20260905182554 67 65 1.0 4.0 0.00 0.13 0.00 68 1016.7
20260905182054 66 15 1.0 4.0 0.00 0.13 0.00 69 1016.8
20260905181602 66 0 0.0 7.0 0.00 0.13 0.00 70 1016.7
20260905181055 65 325 0.0 7.0 0.00 0.13 0.00 70 1016.8
20260905180554 65 69 3.0 7.0 0.00 0.13 0.00 71 1016.8
20260905175557 65 0 0.0 4.0 0.00 0.13 0.00 73 1016.8
20260905175058 64 285 1.0 4.0 0.00 0.13 0.00 72 1016.8
20260905174606 65 44 0.0 4.0 0.00 0.13 0.00 73 1016.9
20260905174057 64 327 1.0 5.0 0.00 0.13 0.00 74 1016.9
20260905173554 64 0 2.0 5.0 0.00 0.13 0.00 75 1016.9
20260905173102 64 0 1.0 5.0 0.00 0.13 0.00 75 1016.9
20260905172555 64 0 1.0 5.0 0.00 0.13 0.00 75 1017.0
20260905172058 63 59 2.0 5.0 0.00 0.13 0.00 76 1016.8
20260905171635 63 269 1.0 4.0 0.00 0.13 0.00 78 1016.9
20260905171057 63 40 1.0 4.0 0.00 0.13 0.00 78 1016.9
20260905170558 63 51 1.0 4.0 0.00 0.13 0.00 79 1016.8
20260905170107 63 277 0.0 4.0 0.00 0.13 0.00 80 1017.0
20260905165557 62 0 1.0 4.0 0.00 0.13 0.00 81 1017.0
20260905165057 61 0 0.0 4.0 0.00 0.13 0.00 83 1017.0
20260905164605 61 0 1.0 4.0 0.00 0.13 0.00 85 1016.9
20260905164054 60 0 0.0 3.0 0.00 0.13 0.00 87 1017.0
20260905163557 59 26 0.0 8.0 0.00 0.13 0.00 88 1016.9
20260905163105 59 0 0.0 8.0 0.00 0.13 0.00 89 1016.8
20260905162554 59 15 3.0 8.0 0.00 0.13 0.00 90 1016.7
20260905162055 58 52 2.0 5.0 0.00 0.13 0.00 91 1016.8
20260905161601 58 69 0.0 4.0 0.00 0.13 0.00 92 1016.9
20260905161058 57 70 1.0 4.0 0.00 0.13 0.00 93 1017.1
20260905160557 57 71 2.0 4.0 0.00 0.13 0.00 94 1017.2
20260905160109 57 0 0.0 2.0 0.00 0.13 0.00 95 1017.2
20260905155555 56 0 0.0 1.0 0.00 0.15 0.00 96 1017.0
20260905155057 56 0 0.0 1.0 0.00 0.15 0.00 96 1017.1
20260905154648 56 0 0.0 2.0 0.00 0.15 0.00 96 1017.1
20260905154054 55 0 0.0 2.0 0.00 0.15 0.00 96 1017.1
20260905153553 55 61 0.0 2.0 0.00 0.15 0.00 96 1017.1
20260905153104 55 0 0.0 1.0 0.00 0.15 0.00 96 1017.1
20260905152553 55 0 0.0 2.0 0.00 0.15 0.00 96 1017.1
20260905152053 55 0 0.0 2.0 0.00 0.15 0.00 96 1017.1
20260905151604 55 0 0.0 0.0 0.00 0.15 0.00 96 1016.9
20260905151054 54 0 0.0 0.0 0.00 0.15 0.00 96 1017.1
20260905150555 54 0 0.0 0.0 0.00 0.15 0.00 96 1017.0
20260905150105 54 0 0.0 0.0 0.00 0.15 0.00 96 1017.0
20260905145554 54 0 0.0 0.0 0.00 0.15 0.00 96 1017.2
20260905145052 54 0 0.0 0.0 0.00 0.15 0.00 96 1017.1
20260905144609 54 0 0.0 1.0 0.00 0.15 0.00 96 1017.0
20260905144052 53 0 0.0 2.0 0.00 0.15 0.00 96 1017.0
20260905143555 53 0 0.0 2.0 0.00 0.15 0.00 96 1017.0
20260905143106 53 0 0.0 1.0 0.00 0.15 0.00 96 1017.0
20260905142555 53 0 0.0 1.0 0.00 0.15 0.00 96 1017.0
20260905142055 53 0 0.0 0.0 0.00 0.15 0.00 95 1016.9
20260905141601 52 0 0.0 0.0 0.00 0.15 0.00 95 1016.9
20260905141053 52 0 0.0 0.0 0.00 0.15 0.00 95 1016.9
20260905140554 52 0 0.0 1.0 0.00 0.15 0.00 95 1016.9
20260905140104 52 0 0.0 1.0 0.00 0.15 0.00 95 1016.8
20260905135554 52 0 0.0 1.0 0.00 0.15 0.00 95 1016.9
20260905135057 52 0 0.0 1.0 0.00 0.15 0.00 95 1016.9
20260905134607 53 0 0.0 1.0 0.00 0.15 0.00 95 1016.7
20260905134057 53 0 0.0 1.0 0.00 0.15 0.00 95 1016.9
20260905133555 53 0 0.0 1.0 0.00 0.15 0.00 95 1016.8
20260905133103 53 0 0.0 1.0 0.00 0.15 0.00 95 1016.7
20260905132554 53 44 0.0 2.0 0.00 0.15 0.00 95 1016.7
20260905132054 53 0 0.0 2.0 0.00 0.15 0.00 95 1016.6
20260905131558 53 33 0.0 2.0 0.00 0.15 0.00 95 1016.6
20260905131055 53 0 0.0 0.0 0.00 0.15 0.00 95 1016.6
20260905130559 53 0 0.0 1.0 0.00 0.15 0.00 95 1016.7
20260905130101 53 0 0.0 1.0 0.00 0.15 0.00 95 1016.7
20260905125555 53 0 0.0 1.0 0.00 0.15 0.00 95 1016.5
20260905125055 53 0 0.0 1.0 0.00 0.15 0.00 95 1016.5
20260905124602 53 0 0.0 2.0 0.00 0.15 0.00 95 1016.3
20260905124055 53 0 0.0 2.0 0.00 0.15 0.00 95 1016.4
20260905123556 54 0 0.0 3.0 0.00 0.15 0.00 95 1016.4
20260905123103 54 0 0.0 3.0 0.00 0.15 0.00 95 1016.4
20260905122556 54 85 0.0 3.0 0.00 0.15 0.00 95 1016.5
20260905122056 54 0 0.0 2.0 0.00 0.15 0.00 95 1016.5
20260905121608 54 0 0.0 3.0 0.00 0.15 0.00 95 1016.5
20260905121056 54 0 0.0 3.0 0.00 0.15 0.00 95 1016.5
20260905120556 54 0 0.0 3.0 0.00 0.15 0.00 95 1016.4
20260905115555 54 0 0.0 0.0 0.00 0.19 0.00 95 1016.4
20260905115056 54 0 0.0 0.0 0.00 0.19 0.00 95 1016.4
20260905114609 54 0 0.0 0.0 0.00 0.19 0.00 95 1016.3
20260905114057 54 0 0.0 0.0 0.00 0.19 0.00 95 1016.2
20260905113556 54 0 0.0 0.0 0.00 0.19 0.00 95 1016.2
20260905113105 54 0 0.0 0.0 0.00 0.19 0.00 95 1016.3
20260905112556 54 0 0.0 0.0 0.00 0.19 0.00 95 1016.4
20260905112055 54 0 0.0 0.0 0.00 0.19 0.00 95 1016.2
20260905111627 54 0 0.0 0.0 0.00 0.19 0.00 95 1016.2
20260905111055 54 0 0.0 0.0 0.00 0.19 0.00 95 1016.1
20260905110553 54 0 0.0 0.0 0.00 0.19 0.00 95 1016.2
20260905110112 54 0 0.0 0.0 0.00 0.19 0.00 95 1016.2
20260905105558 54 0 0.0 0.0 0.00 0.21 0.00 95 1016.0
20260905105057 54 0 0.0 0.0 0.00 0.21 0.00 95 1016.1
20260905104618 54 0 0.0 0.0 0.00 0.21 0.00 95 1016.2
20260905104101 54 0 0.0 0.0 0.00 0.21 0.00 95 1016.1
20260905103555 54 0 0.0 0.0 0.00 0.21 0.00 95 1016.1
20260905103102 54 0 0.0 0.0 0.00 0.21 0.00 95 1016.1
20260905102557 54 0 0.0 0.0 0.00 0.21 0.00 95 1016.2
20260905102057 54 0 0.0 0.0 0.00 0.21 0.00 95 1016.2
20260905101604 54 0 0.0 0.0 0.00 0.21 0.00 95 1016.2
20260905101058 54 0 0.0 0.0 0.00 0.21 0.00 95 1016.3
20260905100557 54 0 0.0 0.0 0.00 0.21 0.00 95 1016.2
20260905100105 55 0 0.0 0.0 0.00 0.21 0.00 95 1016.1
20260905095558 55 0 0.0 0.0 0.00 0.21 0.00 95 1016.1
20260905095057 55 0 0.0 0.0 0.00 0.21 0.00 95 1016.2
20260905094717 55 0 0.0 0.0 0.00 0.21 0.00 95 1016.3
20260905094101 55 0 0.0 0.0 0.00 0.21 0.00 95 1016.2
20260905093557 55 0 0.0 0.0 0.00 0.21 0.00 95 1016.1
20260905093128 55 0 0.0 0.0 0.00 0.21 0.00 95 1016.1
20260905092556 55 0 0.0 0.0 0.00 0.21 0.00 95 1016.0
20260905092057 55 0 0.0 0.0 0.00 0.21 0.00 95 1016.0
20260905091604 55 0 0.0 0.0 0.00 0.21 0.00 95 1016.0
20260905091059 55 0 0.0 0.0 0.00 0.21 0.00 95 1016.0
20260905090556 55 0 0.0 0.0 0.00 0.21 0.00 95 1016.0
20260905090103 55 0 0.0 0.0 0.00 0.21 0.00 95 1016.0
20260905085558 55 0 0.0 0.0 0.00 0.21 0.00 95 1016.0
20260905085057 55 0 0.0 0.0 0.00 0.21 0.00 95 1016.0
20260905084608 55 0 0.0 0.0 0.00 0.21 0.00 94 1016.0
20260905084057 55 0 0.0 0.0 0.00 0.21 0.00 94 1016.0
20260905083554 55 0 0.0 0.0 0.00 0.21 0.00 94 1016.0
20260905083103 55 0 0.0 0.0 0.00 0.21 0.00 94 1016.0
20260905082554 55 0 0.0 0.0 0.00 0.21 0.00 94 1016.0
20260905082100 55 0 0.0 0.0 0.00 0.21 0.00 94 1015.9
20260905081603 55 0 0.0 0.0 0.00 0.21 0.00 94 1015.9
20260905081057 55 0 0.0 0.0 0.00 0.21 0.00 94 1015.9
20260905080557 55 0 0.0 0.0 0.00 0.21 0.00 94 1015.8
20260905080121 55 0 0.0 0.0 0.00 0.21 0.00 94 1015.9
20260905075555 55 0 0.0 1.0 0.00 0.21 0.00 94 1015.9
20260905075054 55 0 0.0 1.0 0.00 0.21 0.00 94 1015.9
20260905074605 56 0 0.0 1.0 0.00 0.21 0.00 94 1015.8
20260905074058 56 0 0.0 0.0 0.00 0.21 0.00 94 1015.8
20260905073557 56 0 0.0 0.0 0.00 0.21 0.00 94 1015.7
20260905073111 56 0 0.0 0.0 0.00 0.21 0.00 94 1015.7
20260905072559 56 0 0.0 0.0 0.00 0.21 0.00 94 1015.8
20260905072057 56 0 0.0 0.0 0.00 0.21 0.00 94 1015.8
20260905071602 56 0 0.0 0.0 0.00 0.21 0.00 94 1015.8
20260905071056 56 0 0.0 0.0 0.00 0.21 0.00 94 1015.8
20260905070558 56 0 0.0 0.0 0.00 0.21 0.00 94 1015.8
20260905070104 56 0 0.0 0.0 0.00 0.21 0.00 94 1015.7
20260905065600 56 0 0.0 0.0 0.00 0.21 0.21 94 1015.7
20260905065058 56 0 0.0 1.0 0.00 0.21 0.21 94 1015.6
20260905064600 56 0 0.0 1.0 0.00 0.21 0.21 94 1015.6
20260905064058 56 0 0.0 1.0 0.00 0.21 0.21 93 1015.5
20260905063554 56 0 0.0 0.0 0.00 0.21 0.21 93 1015.6
20260905063108 56 0 0.0 0.0 0.00 0.21 0.21 93 1015.5
20260905062556 56 0 0.0 0.0 0.00 0.21 0.21 93 1015.4
20260905062135 56 0 0.0 2.0 0.00 0.21 0.21 93 1015.4
20260905062056 56 0 0.0 2.0 0.00 0.21 0.21 93 1015.4
20260905061606 56 0 0.0 2.0 0.00 0.21 0.21 93 1015.3
20260905061057 56 0 0.0 0.0 0.00 0.21 0.21 93 1015.3
20260905060556 56 0 0.0 0.0 0.00 0.21 0.21 92 1015.3
20260905060109 56 0 0.0 0.0 0.00 0.21 0.21 92 1015.3
20260905055555 56 0 0.0 0.0 0.00 0.21 0.21 93 1015.3
20260905055056 56 0 0.0 0.0 0.00 0.21 0.21 92 1015.3
20260905054606 56 0 0.0 0.0 0.00 0.21 0.21 92 1015.3
20260905054057 56 0 0.0 0.0 0.00 0.21 0.21 92 1015.3
20260905053600 56 0 0.0 0.0 0.00 0.21 0.21 92 1015.4
20260905053104 56 0 0.0 0.0 0.00 0.21 0.21 92 1015.4
20260905052558 56 0 0.0 0.0 0.00 0.21 0.21 92 1015.3
20260905052056 56 0 0.0 0.0 0.00 0.21 0.21 92 1015.3
20260905051611 56 0 0.0 0.0 0.00 0.21 0.21 92 1015.2
20260905051058 56 0 0.0 0.0 0.00 0.21 0.21 92 1015.2
20260905050556 56 0 0.0 1.0 0.00 0.21 0.21 91 1015.2
20260905050107 56 0 0.0 1.0 0.00 0.21 0.21 91 1015.2
20260905045554 56 0 0.0 1.0 0.00 0.21 0.21 91 1015.3
20260905045056 56 0 0.0 1.0 0.00 0.21 0.21 91 1015.2
20260905044604 56 0 0.0 1.0 0.00 0.21 0.21 91 1015.3
20260905044055 56 0 0.0 1.0 0.00 0.21 0.21 91 1015.3
20260905043554 57 0 0.0 0.0 0.00 0.21 0.21 90 1015.2
20260905043101 57 0 0.0 0.0 0.00 0.21 0.21 90 1015.2
20260905042558 57 0 0.0 1.0 0.00 0.21 0.21 90 1015.2
20260905042054 57 0 0.0 1.0 0.00 0.21 0.21 90 1015.1
20260905041611 57 0 0.0 0.0 0.00 0.21 0.21 90 1015.2
20260905041054 57 0 0.0 0.0 0.00 0.21 0.21 90 1015.1
20260905040555 57 0 0.0 0.0 0.00 0.21 0.21 90 1015.0
20260905040112 57 0 0.0 2.0 0.00 0.21 0.21 90 1015.1
20260905035555 57 0 0.0 2.0 0.00 0.21 0.21 89 1015.0
20260905035054 57 0 0.0 2.0 0.00 0.21 0.21 89 1014.9
20260905034607 57 0 0.0 2.0 0.00 0.21 0.21 89 1014.7
20260905034055 57 0 0.0 1.0 0.00 0.21 0.21 89 1014.7
20260905033554 58 0 0.0 1.0 0.00 0.21 0.21 89 1014.7
20260905033109 58 0 0.0 3.0 0.00 0.21 0.21 89 1014.7
20260905032555 58 0 1.0 3.0 0.00 0.21 0.21 88 1014.7
20260905032053 58 0 1.0 4.0 0.00 0.21 0.21 88 1014.7
20260905031613 58 0 1.0 4.0 0.00 0.21 0.21 88 1014.7
20260905031055 58 0 0.0 0.0 0.00 0.21 0.21 88 1014.6
20260905030554 59 0 0.0 0.0 0.00 0.21 0.21 88 1014.6
20260905030111 59 0 0.0 0.0 0.00 0.21 0.21 88 1014.6
20260905025555 59 0 0.0 0.0 0.00 0.21 0.21 88 1014.6
20260905025054 59 0 0.0 0.0 0.00 0.21 0.21 88 1014.5
20260905024612 59 0 0.0 0.0 0.00 0.21 0.21 87 1014.5
20260905024103 59 0 0.0 0.0 0.00 0.21 0.21 87 1014.5
20260905023558 60 0 0.0 0.0 0.00 0.21 0.21 87 1014.5
20260905023107 60 0 0.0 0.0 0.00 0.21 0.21 87 1014.5
20260905022557 60 0 0.0 0.0 0.00 0.21 0.21 87 1014.5
20260905022058 60 0 0.0 0.0 0.00 0.21 0.21 87 1014.5
20260905021614 60 0 0.0 0.0 0.00 0.21 0.21 87 1014.4
20260905021057 60 0 0.0 0.0 0.00 0.21 0.21 87 1014.4
20260905020557 60 0 0.0 2.0 0.00 0.21 0.21 86 1014.4
20260905020108 60 0 0.0 3.0 0.00 0.21 0.21 87 1014.3
20260905015554 60 0 1.0 3.0 0.00 0.21 0.21 86 1014.4
20260905015054 60 0 0.0 4.0 0.00 0.21 0.21 86 1014.4
20260905014600 60 132 0.0 4.0 0.01 0.21 0.21 87 1014.3
20260905014054 60 112 1.0 3.0 0.01 0.21 0.21 87 1014.2
20260905013555 60 0 0.0 3.0 0.01 0.21 0.21 87 1014.2
20260905013122 60 99 0.0 1.0 0.01 0.21 0.21 88 1014.2
20260905012555 60 0 0.0 1.0 0.01 0.21 0.21 87 1014.1
20260905012054 60 0 0.0 1.0 0.01 0.21 0.21 87 1014.1
20260905011613 60 153 0.0 2.0 0.01 0.21 0.21 87 1014.0
20260905011054 60 0 0.0 2.0 0.01 0.21 0.21 86 1013.9
20260905010555 61 0 0.0 1.0 0.01 0.21 0.21 86 1014.0
20260905010108 61 0 0.0 2.0 0.01 0.21 0.21 86 1013.9
20260905005557 61 0 0.0 2.0 0.01 0.22 0.21 86 1013.9
20260905005057 61 143 0.0 2.0 0.01 0.22 0.21 86 1014.0
20260905004608 61 142 0.0 2.0 0.00 0.21 0.20 86 1013.9
20260905004054 61 0 0.0 2.0 0.00 0.21 0.20 86 1013.9
20260905003554 61 0 0.0 3.0 0.00 0.21 0.20 85 1013.9
20260905003105 61 0 0.0 4.0 0.00 0.21 0.20 85 1013.9
20260905002558 61 0 1.0 4.0 0.00 0.21 0.20 85 1014.0
20260905002057 61 182 0.0 4.0 0.00 0.21 0.20 85 1014.0
20260905001603 61 187 0.0 3.0 0.00 0.21 0.20 85 1014.0
20260905001054 61 0 0.0 3.0 0.00 0.21 0.20 85 1013.9
20260905000559 61 327 0.0 2.0 0.00 0.21 0.20 85 1013.8
20260905000105 61 0 0.0 2.0 0.00 0.21 0.20 85 1013.8
20260904235555 61 0 0.0 2.0 0.00 0.21 0.20 86 1013.9
20260904235058 61 0 0.0 4.0 0.00 0.21 0.20 86 1013.9
20260904234600 61 0 1.0 4.0 0.00 0.21 0.20 87 1013.9
20260904234056 60 113 0.0 3.0 0.00 0.21 0.20 87 1013.9
20260904233555 60 95 0.0 3.0 0.00 0.21 0.20 87 1013.8
20260904233107 60 95 0.0 4.0 0.00 0.21 0.20 87 1013.8
20260904232555 60 0 2.0 5.0 0.00 0.21 0.20 87 1013.8
20260904232054 60 136 1.0 6.0 0.00 0.21 0.20 89 1013.7
20260904231601 59 0 1.0 8.0 0.00 0.21 0.20 89 1013.7
20260904231054 59 103 2.0 8.0 0.00 0.21 0.20 89 1013.7
20260904230558 59 88 2.0 7.0 0.01 0.21 0.20 90 1013.6
20260904230111 58 92 3.0 10.0 0.01 0.21 0.20 90 1013.6
20260904225554 59 119 4.0 10.0 0.02 0.21 0.20 91 1013.7
20260904225055 59 80 3.0 8.0 0.02 0.21 0.20 91 1013.6
20260904224622 59 0 0.0 7.0 0.02 0.21 0.20 92 1013.7
20260904224057 58 120 2.0 7.0 0.02 0.21 0.20 91 1013.7
20260904223557 59 117 1.0 4.0 0.03 0.21 0.20 91 1013.7
20260904223111 59 94 1.0 5.0 0.04 0.21 0.20 90 1013.8
20260904222555 59 103 1.0 5.0 0.06 0.21 0.20 90 1013.8
20260904222055 59 0 1.0 4.0 0.07 0.21 0.20 90 1013.9
20260904221629 59 0 0.0 4.0 0.10 0.21 0.20 89 1013.9
20260904221055 59 0 1.0 2.0 0.11 0.21 0.20 88 1013.8
20260904220555 59 92 0.0 2.0 0.11 0.20 0.19 88 1013.7
20260904215559 59 21 0.0 1.0 0.10 0.19 0.18 86 1013.5
20260904215058 59 0 0.0 2.0 0.10 0.19 0.18 85 1013.4
20260904214601 59 0 0.0 4.0 0.10 0.19 0.18 83 1013.4
20260904214055 60 37 2.0 4.0 0.10 0.19 0.18 82 1013.4
20260904213554 60 25 2.0 3.0 0.09 0.18 0.17 80 1013.4
20260904213108 61 0 0.0 2.0 0.08 0.17 0.16 78 1013.2
20260904212555 61 0 0.0 10.0 0.06 0.15 0.14 77 1013.2
20260904212058 62 0 3.0 10.0 0.04 0.13 0.12 75 1013.2
20260904211606 63 227 2.0 7.0 0.02 0.11 0.10 73 1013.2
20260904211054 64 141 2.0 7.0 0.01 0.10 0.09 72 1013.2
20260904210556 64 286 1.0 8.0 0.00 0.09 0.08 70 1013.0
20260904210120 65 286 2.0 8.0 0.00 0.09 0.08 67 1012.8
20260904205555 66 281 2.0 8.0 0.00 0.10 0.08 66 1012.9
20260904205054 67 277 2.0 6.0 0.00 0.10 0.08 63 1012.7
20260904204602 67 300 0.0 4.0 0.00 0.10 0.08 63 1012.6
20260904204058 67 11 1.0 5.0 0.00 0.10 0.08 63 1012.5
20260904203558 68 0 0.0 5.0 0.00 0.10 0.08 64 1012.5
20260904203104 68 257 1.0 8.0 0.00 0.10 0.08 62 1012.5
20260904202554 68 0 2.0 8.0 0.00 0.10 0.08 61 1012.3
20260904202054 69 264 1.0 7.0 0.00 0.10 0.08 59 1012.5
20260904201636 70 248 1.0 5.0 0.00 0.10 0.08 60 1012.4
20260904201054 70 277 0.0 5.0 0.00 0.10 0.08 58 1012.3
20260904200554 69 318 2.0 7.0 0.00 0.10 0.08 59 1012.4
20260904200121 69 313 2.0 8.0 0.00 0.10 0.08 61 1012.4
20260904195555 68 32 1.0 8.0 0.00 0.10 0.08 61 1012.5
20260904195055 68 273 1.0 5.0 0.00 0.10 0.08 62 1012.4
20260904194605 67 249 0.0 5.0 0.00 0.10 0.08 62 1012.6
20260904194055 67 282 2.0 5.0 0.00 0.10 0.08 61 1012.7
20260904193558 67 0 0.0 2.0 0.00 0.10 0.08 63 1012.7
20260904193103 67 213 0.0 2.0 0.00 0.10 0.08 63 1012.7
20260904192555 67 0 0.0 3.0 0.00 0.10 0.08 62 1012.7
20260904192055 67 0 0.0 4.0 0.00 0.10 0.08 62 1012.7
20260904191601 67 77 2.0 4.0 0.00 0.10 0.08 61 1012.8